FIN1M EFHK-EFJY

Flight info

Callsign FIN1M
Flight time N/A
Altitude 20000
Route TEVRU Y75 USUPO/N0353F190 DCT ERTOP XELMA IBOSU Y86 LUSEP
Aircraft A319/M-SDE3FGHIRWY/LB1

Departure

Time 2026-05-04 14:23
Airport Helsinki Vantaa Airport (EFHK)

Arrival

Time N/A
Airport Jyväskylä Airport (EFJY)
Time Latitude Longitude Altitude Speed Heading
2026-05-04 14:13 60.32068 24.96684 167 ft 0 kts 137°
2026-05-04 14:19 60.32046 24.96732 167 ft 4 kts 117°
2026-05-04 14:19 60.32055 24.96766 167 ft 3 kts 47°
2026-05-04 14:19 60.32072 24.96802 167 ft 4 kts 46°
2026-05-04 14:19 60.32087 24.96834 167 ft 0 kts 46°
2026-05-04 14:21 60.32098 24.96857 167 ft 6 kts 42°
2026-05-04 14:21 60.32155 24.96840 167 ft 13 kts 329°
2026-05-04 14:21 60.32251 24.96728 166 ft 17 kts 330°
2026-05-04 14:21 60.32351 24.96608 172 ft 15 kts 329°
2026-05-04 14:22 60.32413 24.96475 175 ft 13 kts 264°
2026-05-04 14:22 60.32396 24.96424 176 ft 0 kts 226°
2026-05-04 14:22 60.32394 24.96421 176 ft 2 kts 226°
2026-05-04 14:23 60.31689 24.94878 311 ft 143 kts 227°
2026-05-04 14:23 60.31052 24.93285 1169 ft 149 kts 248°
2026-05-04 14:23 60.30956 24.91122 1952 ft 168 kts 276°
2026-05-04 14:24 60.31150 24.88614 2688 ft 194 kts 280°
2026-05-04 14:24 60.31719 24.85976 3534 ft 223 kts 308°
2026-05-04 14:24 60.33080 24.84097 4477 ft 254 kts 337°
2026-05-04 14:24 60.34893 24.83781 5682 ft 272 kts
2026-05-04 14:25 60.36774 24.84447 6917 ft 277 kts
2026-05-04 14:25 60.40695 24.85761 9148 ft 295 kts
2026-05-04 14:25 60.42761 24.86424 10056 ft 310 kts
2026-05-04 14:26 60.44973 24.87126 10695 ft 332 kts
2026-05-04 14:26 60.47289 24.87878 11639 ft 341 kts
2026-05-04 14:26 60.49654 24.88662 12688 ft 348 kts
2026-05-04 14:26 60.52067 24.89472 13679 ft 354 kts
2026-05-04 14:27 60.54511 24.90414 14559 ft 362 kts
2026-05-04 14:27 60.56983 24.91618 15460 ft 368 kts
2026-05-04 14:27 60.59483 24.92940 16347 ft 374 kts
2026-05-04 14:27 60.62017 24.94335 17226 ft 380 kts
2026-05-04 14:28 60.64587 24.95770 18085 ft 385 kts
2026-05-04 14:28 60.67192 24.97220 18845 ft 391 kts
2026-05-04 14:28 60.69834 24.98670 19409 ft 397 kts
2026-05-04 14:28 60.72578 25.00142 19617 ft 418 kts
2026-05-04 14:29 60.78308 25.03198 19656 ft 428 kts
2026-05-04 14:29 60.84073 25.06336 19649 ft 428 kts
2026-05-04 14:30 60.86952 25.07910 19655 ft 431 kts
2026-05-04 14:30 60.89936 25.09529 19650 ft 455 kts
2026-05-04 14:30 60.96252 25.12946 19647 ft 477 kts 10°
2026-05-04 14:31 60.99464 25.14714 19644 ft 478 kts 10°
2026-05-04 14:31 61.05892 25.18284 19646 ft 477 kts 10°
2026-05-04 14:32 61.11948 25.21678 19642 ft 427 kts 10°
2026-05-04 14:32 61.14746 25.23248 19636 ft 406 kts
2026-05-04 14:32 61.17377 25.24722 19638 ft 378 kts
2026-05-04 14:32 61.19882 25.26116 19644 ft 369 kts
2026-05-04 14:33 61.22353 25.27474 19640 ft 367 kts
2026-05-04 14:33 61.24906 25.28848 19640 ft 391 kts
2026-05-04 14:33 61.27539 25.30271 19638 ft 399 kts
2026-05-04 14:33 61.30233 25.31759 19637 ft 402 kts
2026-05-04 14:34 61.32946 25.33278 19641 ft 413 kts
2026-05-04 14:34 61.35771 25.34862 19634 ft 424 kts 10°
2026-05-04 14:34 61.38630 25.36475 19642 ft 425 kts 10°
2026-05-04 14:34 61.41415 25.38066 19629 ft 406 kts 10°
2026-05-04 14:35 61.44069 25.39598 19629 ft 386 kts 10°
2026-05-04 14:35 61.46604 25.41057 19668 ft 372 kts
2026-05-04 14:35 61.49136 25.42480 19617 ft 385 kts
2026-05-04 14:35 61.51720 25.43917 18885 ft 384 kts
2026-05-04 14:36 61.54304 25.45365 18111 ft 384 kts
2026-05-04 14:36 61.56869 25.46814 17637 ft 380 kts
2026-05-04 14:36 61.59414 25.48266 17067 ft 377 kts 10°
2026-05-04 14:36 61.61928 25.49706 16557 ft 373 kts 10°
2026-05-04 14:37 61.64419 25.51135 16057 ft 369 kts 10°
2026-05-04 14:37 61.66886 25.52554 15596 ft 366 kts 10°
2026-05-04 14:37 61.69327 25.53962 15105 ft 363 kts 10°
2026-05-04 14:37 61.71753 25.55360 14633 ft 360 kts 10°
2026-05-04 14:38 61.74160 25.56746 14159 ft 357 kts 11°
2026-05-04 14:38 61.76548 25.58122 13747 ft 353 kts 11°
2026-05-04 14:38 61.78911 25.59488 13273 ft 351 kts 11°
2026-05-04 14:38 61.81250 25.60843 12767 ft 348 kts 11°
2026-05-04 14:39 61.83566 25.62185 12332 ft 343 kts 11°
2026-05-04 14:39 61.85853 25.63513 11981 ft 335 kts 11°
2026-05-04 14:39 61.88058 25.64802 11840 ft 322 kts 11°
2026-05-04 14:40 61.92294 25.67269 11026 ft 312 kts 11°
2026-05-04 14:40 61.94377 25.68480 10650 ft 309 kts 11°
2026-05-04 14:40 61.96430 25.69680 10220 ft 304 kts 12°
2026-05-04 14:40 61.98433 25.70856 9785 ft 293 kts 12°
2026-05-04 14:41 62.00378 25.71995 9211 ft 287 kts 12°
2026-05-04 14:41 62.02295 25.73118 8552 ft 284 kts 12°
2026-05-04 14:41 62.06059 25.75327 7307 ft 275 kts 12°
2026-05-04 14:42 62.09646 25.77440 6390 ft 264 kts 12°
2026-05-04 14:42 62.11403 25.78478 6170 ft 255 kts 12°
2026-05-04 14:42 62.13091 25.79478 5856 ft 251 kts 12°
2026-05-04 14:43 62.14747 25.80455 5445 ft 250 kts 12°
2026-05-04 14:43 62.16432 25.81451 4995 ft 251 kts 12°
2026-05-04 14:43 62.18135 25.82461 4542 ft 252 kts 12°
2026-05-04 14:43 62.19799 25.83394 4321 ft 241 kts
2026-05-04 14:44 62.21431 25.83866 4016 ft 234 kts
2026-05-04 14:44 62.23034 25.83916 3636 ft 227 kts 355°
2026-05-04 14:44 62.24567 25.83733 3428 ft 214 kts 351°
2026-05-04 14:44 62.26007 25.83361 3208 ft 210 kts 349°
2026-05-04 14:45 62.27451 25.82972 2945 ft 210 kts 350°
2026-05-04 14:45 62.28857 25.82493 2638 ft 197 kts 345°
2026-05-04 14:45 62.30105 25.81832 2485 ft 170 kts 340°
2026-05-04 14:45 62.31141 25.81126 2382 ft 156 kts 337°
2026-05-04 14:46 62.32195 25.80349 2310 ft 156 kts 335°
2026-05-04 14:46 62.33113 25.79542 2080 ft 146 kts 332°
2026-05-04 14:46 62.34044 25.78761 1802 ft 141 kts 331°
2026-05-04 14:46 62.34898 25.77824 1540 ft 134 kts 323°
2026-05-04 14:47 62.35663 25.76778 1280 ft 127 kts 319°
2026-05-04 14:47 62.36359 25.75631 1062 ft 124 kts 315°
2026-05-04 14:47 62.36992 25.74398 940 ft 122 kts 313°
2026-05-04 14:47 62.37584 25.73105 847 ft 121 kts 309°
2026-05-04 14:48 62.38160 25.71805 745 ft 119 kts 311°
2026-05-04 14:48 62.38731 25.70538 609 ft 116 kts 310°
2026-05-04 14:48 62.39292 25.69301 479 ft 115 kts 310°
2026-05-04 14:48 62.39812 25.68123 472 ft 129 kts 314°
2026-05-04 14:49 62.40572 25.66397 968 ft 176 kts 308°
2026-05-04 14:49 62.41177 25.64967 1395 ft 206 kts 307°
2026-05-04 14:49 62.42633 25.61498 2274 ft 242 kts 311°
2026-05-04 14:49 62.43588 25.58789 2949 ft 212 kts 292°
2026-05-04 14:50 62.43817 25.56803 2987 ft 196 kts 269°
2026-05-04 14:50 62.43436 25.54179 2863 ft 182 kts 231°
2026-05-04 14:50 62.42433 25.52894 2744 ft 162 kts 192°
2026-05-04 14:50 62.41425 25.53399 2566 ft 141 kts 160°
2026-05-04 14:51 62.40631 25.54342 2388 ft 122 kts 156°
2026-05-04 14:51 62.39909 25.55252 2070 ft 120 kts 155°
2026-05-04 14:51 62.39335 25.56599 1771 ft 125 kts 131°
2026-05-04 14:51 62.38865 25.58144 1414 ft 122 kts 130°
2026-05-04 14:52 62.38361 25.59581 1182 ft 119 kts 130°
2026-05-04 14:52 62.37811 25.60997 1210 ft 125 kts 137°
2026-05-04 14:52 62.37252 25.62413 1202 ft 124 kts 139°
2026-05-04 14:52 62.36688 25.63819 1205 ft 123 kts 137°
2026-05-04 14:53 62.36133 25.65211 1202 ft 122 kts 138°
2026-05-04 14:53 62.35911 25.66989 1107 ft 134 kts 70°
2026-05-04 14:53 62.36557 25.68484 1092 ft 139 kts 32°
2026-05-04 14:53 62.37334 25.69644 1024 ft 136 kts 31°
2026-05-04 14:54 62.38163 25.70553 754 ft 130 kts
2026-05-04 14:54 62.38960 25.70018 568 ft 119 kts 317°
2026-05-04 14:54 62.39524 25.68773 475 ft 107 kts 310°
2026-05-04 14:54 62.40038 25.67605 475 ft 140 kts 313°
2026-05-04 14:55 62.40794 25.65816 986 ft 174 kts 308°
2026-05-04 14:55 62.41306 25.63581 1274 ft 164 kts 265°
2026-05-04 14:55 62.40660 25.61679 1450 ft 160 kts 202°
2026-05-04 14:55 62.39655 25.62248 1399 ft 165 kts 141°
2026-05-04 14:56 62.38960 25.64324 1341 ft 161 kts 127°
2026-05-04 14:56 62.38421 25.66254 1159 ft 142 kts 124°
2026-05-04 14:56 62.38040 25.68119 996 ft 135 kts 112°
2026-05-04 14:56 62.38196 25.70055 663 ft 136 kts 47°
2026-05-04 14:57 62.39152 25.71059 747 ft 166 kts 18°
2026-05-04 14:57 62.40052 25.72883 933 ft 197 kts 73°
2026-05-04 14:57 62.39881 25.75709 902 ft 187 kts 130°
2026-05-04 14:57 62.38919 25.76215 936 ft 142 kts 211°
2026-05-04 14:58 62.38694 25.74405 742 ft 133 kts 279°
2026-05-04 14:58 62.38716 25.72561 652 ft 116 kts 260°
2026-05-04 14:58 62.38775 25.70812 621 ft 121 kts 277°
2026-05-04 14:58 62.39293 25.69303 482 ft 127 kts 306°
2026-05-04 14:59 62.39842 25.68051 471 ft 119 kts 314°
2026-05-04 14:59 62.40572 25.66414 814 ft 167 kts 310°
2026-05-04 14:59 62.42542 25.64231 1319 ft 166 kts 28°
2026-05-04 15:00 62.43046 25.66267 1445 ft 152 kts 98°
2026-05-04 15:00 62.42524 25.67985 1131 ft 129 kts 145°
2026-05-04 15:00 62.41871 25.69119 1010 ft 114 kts 146°
2026-05-04 15:01 62.40584 25.71450 851 ft 119 kts 144°
2026-05-04 15:01 62.39949 25.72542 790 ft 118 kts 149°
2026-05-04 15:01 62.39207 25.72869 696 ft 113 kts 204°
2026-05-04 15:01 62.38790 25.71412 703 ft 120 kts 256°
2026-05-04 15:02 62.39087 25.69713 516 ft 128 kts 308°
2026-05-04 15:02 62.39685 25.68421 468 ft 112 kts 310°
2026-05-04 15:02 62.40305 25.66915 947 ft 150 kts 307°
2026-05-04 15:02 62.41059 25.65129 1736 ft 172 kts 308°
2026-05-04 15:03 62.41714 25.62896 2417 ft 180 kts 280°
2026-05-04 15:03 62.41638 25.60278 3524 ft 176 kts 248°
2026-05-04 15:03 62.40860 25.58282 4682 ft 180 kts 213°
2026-05-04 15:03 62.39637 25.57581 5808 ft 185 kts 189°
2026-05-04 15:04 62.38358 25.57307 6874 ft 185 kts 190°
2026-05-04 15:04 62.37067 25.57031 7895 ft 188 kts 191°
2026-05-04 15:04 62.35757 25.56750 8925 ft 191 kts 191°
2026-05-04 15:04 62.34426 25.56459 9914 ft 194 kts 192°
2026-05-04 15:05 62.33093 25.56163 10863 ft 196 kts 193°
2026-05-04 15:05 62.31679 25.55836 11631 ft 210 kts 193°
2026-05-04 15:05 62.30214 25.55506 12562 ft 222 kts 193°
2026-05-04 15:05 62.28593 25.55122 13199 ft 247 kts 193°
2026-05-04 15:06 62.26849 25.54725 14195 ft 245 kts 192°
2026-05-04 15:06 62.25191 25.54377 15577 ft 236 kts 193°
2026-05-04 15:06 62.23555 25.54021 16663 ft 240 kts 193°
2026-05-04 15:07 62.19895 25.53150 17690 ft 288 kts 193°
2026-05-04 15:07 62.17818 25.52664 18079 ft 313 kts 192°
2026-05-04 15:07 62.15586 25.52161 18524 ft 330 kts 192°
2026-05-04 15:07 62.13269 25.51662 19224 ft 337 kts 192°
2026-05-04 15:08 62.10928 25.51166 19502 ft 338 kts 192°
2026-05-04 15:08 62.08594 25.50677 19583 ft 331 kts 192°
2026-05-04 15:08 62.06370 25.50227 19590 ft 313 kts 192°
2026-05-04 15:08 62.04227 25.49782 19592 ft 307 kts 192°
2026-05-04 15:09 62.02084 25.49305 19603 ft 318 kts 193°
2026-05-04 15:09 61.99914 25.48809 19593 ft 308 kts 193°
2026-05-04 15:09 61.97792 25.48332 19594 ft 306 kts 192°
2026-05-04 15:10 61.93595 25.47400 19601 ft 305 kts 193°
2026-05-04 15:10 61.91484 25.46931 19605 ft 305 kts 193°
2026-05-04 15:10 61.87259 25.46001 19604 ft 305 kts 193°
2026-05-04 15:11 61.85149 25.45537 19608 ft 305 kts 193°
2026-05-04 15:11 61.83036 25.45070 19606 ft 305 kts 193°
2026-05-04 15:11 61.80925 25.44610 19605 ft 305 kts 192°
2026-05-04 15:11 61.78813 25.44152 19603 ft 305 kts 193°
2026-05-04 15:12 61.76699 25.43692 19610 ft 306 kts 193°
2026-05-04 15:12 61.74583 25.43235 19617 ft 306 kts 192°
2026-05-04 15:12 61.72464 25.42779 19620 ft 306 kts 192°
2026-05-04 15:12 61.70347 25.42324 19622 ft 306 kts 192°
2026-05-04 15:13 61.68231 25.41872 19608 ft 306 kts 192°
2026-05-04 15:13 61.66110 25.41432 19612 ft 306 kts 192°
2026-05-04 15:13 61.63914 25.41069 19621 ft 332 kts 191°
2026-05-04 15:13 61.61555 25.40745 19619 ft 344 kts 189°
2026-05-04 15:14 61.59157 25.40468 19619 ft 347 kts 189°
2026-05-04 15:14 61.56745 25.40215 19621 ft 347 kts 189°
2026-05-04 15:14 61.54329 25.39960 19623 ft 347 kts 189°
2026-05-04 15:14 61.51915 25.39690 19623 ft 347 kts 189°
2026-05-04 15:15 61.49504 25.39410 19622 ft 347 kts 189°
2026-05-04 15:15 61.47015 25.39097 19628 ft 373 kts 189°
2026-05-04 15:15 61.44372 25.38745 19619 ft 397 kts 189°
2026-05-04 15:16 61.38629 25.38020 19617 ft 422 kts 188°
2026-05-04 15:16 61.35690 25.37678 19606 ft 424 kts 188°
2026-05-04 15:16 61.29975 25.37059 19624 ft 387 kts 188°
2026-05-04 15:17 61.27412 25.36788 19500 ft 365 kts 189°
2026-05-04 15:17 61.22613 25.36231 18366 ft 335 kts 190°
2026-05-04 15:17 61.20301 25.35928 17513 ft 332 kts 190°